AFL914 UACC-ULLI

Flight info

Callsign AFL914
Flight time 3h 18m
Altitude 34000
Route KODOL1B KODOL T523 ATBAN L994 DOKUT L998 LANOR N993 SONAT M60 APSAS L259 PRIBI P979 BEPOL BEPOL1V
Aircraft A333/H-SADE1E2E3GHIJ3J5M1P2RWXY/LB2D1

Departure

Time 2026-05-01 09:50
Airport Nursultan Nazarbayev International Airport (UACC)

Arrival

Time 2026-05-01 13:09
Airport Pulkovo Airport (ULLI)
Time Latitude Longitude Altitude Speed Heading
2026-05-01 09:30 51.02835 71.46551 1169 ft 0 kts 314°
2026-05-01 09:39 51.02821 71.46573 1165 ft 4 kts 308°
2026-05-01 09:40 51.02805 71.46606 1165 ft 4 kts 295°
2026-05-01 09:40 51.02793 71.46684 1165 ft 4 kts 253°
2026-05-01 09:40 51.02801 71.46720 1166 ft 3 kts 226°
2026-05-01 09:41 51.02804 71.46725 1166 ft 0 kts 224°
2026-05-01 09:43 51.02803 71.46724 1166 ft 1 kts 224°
2026-05-01 09:44 51.02732 71.46633 1166 ft 12 kts 197°
2026-05-01 09:44 51.02664 71.46700 1167 ft 13 kts 137°
2026-05-01 09:44 51.02688 71.46840 1170 ft 20 kts 44°
2026-05-01 09:45 51.02824 71.47048 1166 ft 33 kts 39°
2026-05-01 09:45 51.02974 71.47267 1168 ft 19 kts 47°
2026-05-01 09:45 51.03072 71.47428 1168 ft 0 kts 38°
2026-05-01 09:46 51.03109 71.47490 1165 ft 18 kts 45°
2026-05-01 09:46 51.03244 71.47668 1167 ft 32 kts 43°
2026-05-01 09:46 51.03371 71.47894 1166 ft 15 kts 53°
2026-05-01 09:46 51.03423 71.48016 1165 ft 0 kts 71°
2026-05-01 09:47 51.03429 71.48058 1168 ft 11 kts 77°
2026-05-01 09:47 51.03431 71.48148 1170 ft 2 kts 93°
2026-05-01 09:47 51.03431 71.48155 1170 ft 0 kts 93°
2026-05-01 09:49 51.03431 71.48156 1170 ft 1 kts 93°
2026-05-01 09:49 51.03428 71.48252 1168 ft 22 kts 91°
2026-05-01 09:49 51.03375 71.48345 1167 ft 15 kts 165°
2026-05-01 09:49 51.03292 71.48225 1166 ft 32 kts 240°
2026-05-01 09:50 51.02919 71.47667 1171 ft 114 kts 224°
2026-05-01 09:50 51.02197 71.46522 1176 ft 176 kts 225°
2026-05-01 09:50 51.01250 71.45045 1669 ft 193 kts 220°
2026-05-01 09:50 51.00265 71.43642 2784 ft 184 kts 220°
2026-05-01 09:51 50.99339 71.42253 3815 ft 188 kts 221°
2026-05-01 09:51 50.98353 71.40746 4343 ft 207 kts 224°
2026-05-01 09:51 50.97291 71.39017 4751 ft 230 kts 224°
2026-05-01 09:51 50.96126 71.37126 5122 ft 249 kts 224°
2026-05-01 09:52 50.95121 71.34836 5634 ft 261 kts 246°
2026-05-01 09:52 50.94873 71.31974 6339 ft 270 kts 271°
2026-05-01 09:52 50.95285 71.29032 7077 ft 275 kts 284°
2026-05-01 09:52 50.95916 71.26173 7829 ft 275 kts 286°
2026-05-01 09:53 50.96553 71.23333 8447 ft 278 kts 285°
2026-05-01 09:53 50.97144 71.20408 9196 ft 278 kts 283°
2026-05-01 09:53 50.97673 71.17454 9925 ft 279 kts 281°
2026-05-01 09:53 50.98167 71.14422 10330 ft 292 kts 280°
2026-05-01 09:54 50.98666 71.11179 10521 ft 312 kts 279°
2026-05-01 09:54 50.99194 71.07738 10734 ft 329 kts 279°
2026-05-01 09:54 50.99749 71.04189 11304 ft 332 kts 280°
2026-05-01 09:54 51.00317 71.00613 11889 ft 336 kts 280°
2026-05-01 09:55 51.00919 70.97010 12460 ft 340 kts 281°
2026-05-01 09:55 51.01543 70.93381 13060 ft 343 kts 281°
2026-05-01 09:55 51.02177 70.89705 13644 ft 346 kts 280°
2026-05-01 09:55 51.02854 70.86021 14161 ft 351 kts 284°
2026-05-01 09:56 51.03766 70.82385 14714 ft 356 kts 288°
2026-05-01 09:56 51.04754 70.78763 15235 ft 359 kts 288°
2026-05-01 09:56 51.05764 70.75131 15775 ft 361 kts 288°
2026-05-01 09:56 51.06792 70.71456 16288 ft 365 kts 288°
2026-05-01 09:57 51.07822 70.67768 16815 ft 367 kts 288°
2026-05-01 09:57 51.08863 70.64035 17347 ft 370 kts 288°
2026-05-01 09:57 51.09909 70.60271 17844 ft 374 kts 288°
2026-05-01 09:57 51.10961 70.56472 18336 ft 376 kts 288°
2026-05-01 09:58 51.12017 70.52651 18812 ft 379 kts 288°
2026-05-01 09:58 51.13080 70.48797 19258 ft 382 kts 288°
2026-05-01 09:58 51.14148 70.44912 19703 ft 385 kts 288°
2026-05-01 09:58 51.15223 70.40992 20169 ft 388 kts 288°
2026-05-01 09:59 51.16303 70.37046 20632 ft 391 kts 288°
2026-05-01 09:59 51.17394 70.33055 21094 ft 394 kts 287°
2026-05-01 09:59 51.18490 70.29036 21542 ft 397 kts 287°
2026-05-01 09:59 51.19579 70.25035 21987 ft 401 kts 287°
2026-05-01 10:00 51.20707 70.20885 22450 ft 404 kts 287°
2026-05-01 10:00 51.21814 70.16807 22915 ft 408 kts 287°
2026-05-01 10:00 51.22959 70.12580 23362 ft 411 kts 287°
2026-05-01 10:00 51.24080 70.08434 23744 ft 414 kts 287°
2026-05-01 10:01 51.25224 70.04204 24182 ft 416 kts 287°
2026-05-01 10:01 51.26383 69.99899 24603 ft 418 kts 287°
2026-05-01 10:01 51.27563 69.95710 25001 ft 423 kts 290°
2026-05-01 10:01 51.29055 69.91620 25434 ft 430 kts 298°
2026-05-01 10:02 51.30798 69.87714 25842 ft 434 kts 300°
2026-05-01 10:02 51.32593 69.83812 26253 ft 436 kts 300°
2026-05-01 10:02 51.34402 69.79893 26663 ft 438 kts 300°
2026-05-01 10:02 51.36210 69.75947 27060 ft 440 kts 300°
2026-05-01 10:03 51.38012 69.71977 27271 ft 447 kts 299°
2026-05-01 10:03 51.39851 69.67892 27390 ft 456 kts 299°
2026-05-01 10:03 51.41716 69.63727 27489 ft 464 kts 299°
2026-05-01 10:03 51.43612 69.59482 27580 ft 472 kts 299°
2026-05-01 10:04 51.45538 69.55165 27676 ft 480 kts 299°
2026-05-01 10:04 51.47493 69.50778 27757 ft 486 kts 299°
2026-05-01 10:04 51.49467 69.46343 27810 ft 491 kts 299°
2026-05-01 10:04 51.51455 69.41875 27920 ft 494 kts 299°
2026-05-01 10:05 51.53455 69.37374 28070 ft 494 kts 299°
2026-05-01 10:05 51.55453 69.32870 28186 ft 495 kts 299°
2026-05-01 10:05 51.57450 69.28360 28299 ft 496 kts 299°
2026-05-01 10:05 51.59450 69.23835 28353 ft 497 kts 299°
2026-05-01 10:06 51.63451 69.14755 28644 ft 494 kts 299°
2026-05-01 10:06 51.65411 69.10315 29617 ft 478 kts 298°
2026-05-01 10:06 51.67324 69.05980 30348 ft 472 kts 298°
2026-05-01 10:07 51.69215 69.01669 30697 ft 473 kts 298°
2026-05-01 10:07 51.71090 68.97374 30996 ft 475 kts 298°
2026-05-01 10:07 51.73017 68.92953 31280 ft 476 kts 298°
2026-05-01 10:07 51.74915 68.88597 31802 ft 470 kts 297°
2026-05-01 10:08 51.77981 68.81591 33149 ft 455 kts 297°
2026-05-01 10:08 51.79803 68.77396 33431 ft 457 kts 296°
2026-05-01 10:08 51.82214 68.71821 33866 ft 458 kts 296°
2026-05-01 10:09 51.84027 68.67619 33952 ft 459 kts 296°
2026-05-01 10:09 51.87736 68.58975 33956 ft 473 kts 296°
2026-05-01 10:10 51.90900 68.51599 33866 ft 476 kts 296°
2026-05-01 10:10 51.92774 68.47229 33757 ft 482 kts 296°
2026-05-01 10:10 51.96580 68.38263 33754 ft 473 kts 294°
2026-05-01 10:11 51.98193 68.33757 33756 ft 451 kts 288°
2026-05-01 10:11 51.99496 68.29257 33760 ft 435 kts 285°
2026-05-01 10:11 52.01990 68.20111 33764 ft 452 kts 285°
2026-05-01 10:12 52.04611 68.10622 33765 ft 467 kts 286°
2026-05-01 10:13 52.08696 67.96038 33769 ft 477 kts 287°
2026-05-01 10:13 52.11452 67.86178 33763 ft 477 kts 287°
2026-05-01 10:14 52.15488 67.71676 33761 ft 469 kts 287°
2026-05-01 10:14 52.18162 67.61973 33768 ft 469 kts 287°
2026-05-01 10:15 52.20824 67.52281 33769 ft 468 kts 287°
2026-05-01 10:15 52.23474 67.42587 33749 ft 469 kts 287°
2026-05-01 10:16 52.26126 67.32852 33774 ft 468 kts 287°
2026-05-01 10:17 52.30078 67.18268 33755 ft 468 kts 287°
2026-05-01 10:17 52.33991 67.03730 33758 ft 468 kts 287°
2026-05-01 10:18 52.37921 66.89042 33756 ft 468 kts 287°
2026-05-01 10:19 52.40501 66.79345 33759 ft 468 kts 287°
2026-05-01 10:19 52.43086 66.69561 33762 ft 467 kts 286°
2026-05-01 10:20 52.46867 66.54829 33753 ft 467 kts 286°
2026-05-01 10:20 52.49375 66.44990 33751 ft 468 kts 286°
2026-05-01 10:21 52.53137 66.30182 33745 ft 469 kts 286°
2026-05-01 10:22 52.56882 66.15355 33747 ft 470 kts 285°
2026-05-01 10:23 52.60629 66.00420 33740 ft 471 kts 285°
2026-05-01 10:23 52.64361 65.85443 33739 ft 472 kts 285°
2026-05-01 10:24 52.69314 65.65417 33742 ft 472 kts 285°
2026-05-01 10:25 52.74226 65.45367 33737 ft 471 kts 285°
2026-05-01 10:26 52.76669 65.35471 33733 ft 471 kts 285°
2026-05-01 10:27 52.82795 65.16106 33728 ft 485 kts 302°
2026-05-01 10:28 52.89591 65.03572 33723 ft 488 kts 306°
2026-05-01 10:28 52.96339 64.91011 33705 ft 486 kts 304°
2026-05-01 10:29 53.02980 64.78439 33731 ft 484 kts 304°
2026-05-01 10:30 53.11837 64.61557 33711 ft 483 kts 304°
2026-05-01 10:31 53.20667 64.44629 33715 ft 483 kts 304°
2026-05-01 10:32 53.27238 64.31958 33706 ft 483 kts 304°
2026-05-01 10:33 53.36026 64.14912 33699 ft 484 kts 303°
2026-05-01 10:34 53.42604 64.02081 33695 ft 484 kts 303°
2026-05-01 10:34 53.46987 63.93493 33697 ft 484 kts 303°
2026-05-01 10:35 53.53546 63.80586 33700 ft 484 kts 303°
2026-05-01 10:35 53.57913 63.71953 33702 ft 484 kts 303°
2026-05-01 10:36 53.64429 63.59018 33703 ft 484 kts 302°
2026-05-01 10:37 53.68787 63.50327 33704 ft 484 kts 302°
2026-05-01 10:37 53.75277 63.37333 33708 ft 484 kts 302°
2026-05-01 10:38 53.79633 63.28573 33711 ft 483 kts 302°
2026-05-01 10:38 53.83926 63.19908 33716 ft 483 kts 302°
2026-05-01 10:39 53.88231 63.11185 33720 ft 482 kts 302°
2026-05-01 10:39 53.92526 63.02456 33719 ft 482 kts 302°
2026-05-01 10:40 53.96809 62.93717 33722 ft 481 kts 302°
2026-05-01 10:40 54.01079 62.84975 33729 ft 480 kts 302°
2026-05-01 10:41 54.05343 62.76216 33730 ft 480 kts 301°
2026-05-01 10:42 54.11699 62.63074 33733 ft 478 kts 301°
2026-05-01 10:42 54.15852 62.54241 33739 ft 477 kts 300°
2026-05-01 10:43 54.19999 62.45365 33736 ft 476 kts 300°
2026-05-01 10:43 54.24133 62.36508 33747 ft 476 kts 300°
2026-05-01 10:44 54.28262 62.27646 33753 ft 477 kts 300°
2026-05-01 10:44 54.32363 62.18816 33770 ft 476 kts 300°
2026-05-01 10:45 54.36490 62.09891 33770 ft 476 kts 300°
2026-05-01 10:45 54.40579 62.01023 33775 ft 475 kts 299°
2026-05-01 10:46 54.44674 61.92099 33781 ft 475 kts 299°
2026-05-01 10:46 54.48751 61.83163 33790 ft 474 kts 298°
2026-05-01 10:47 54.52789 61.74273 33793 ft 473 kts 298°
2026-05-01 10:47 54.56839 61.65332 33799 ft 473 kts 298°
2026-05-01 10:48 54.60877 61.56385 33806 ft 473 kts 298°
2026-05-01 10:48 54.64915 61.47410 33817 ft 472 kts 298°
2026-05-01 10:49 54.68939 61.38437 33822 ft 472 kts 297°
2026-05-01 10:49 54.72953 61.29452 33829 ft 472 kts 297°
2026-05-01 10:50 54.76939 61.20493 33834 ft 472 kts 297°
2026-05-01 10:50 54.80956 61.11436 33834 ft 472 kts 297°
2026-05-01 10:51 54.84946 61.02389 33843 ft 472 kts 296°
2026-05-01 10:51 54.88897 60.93397 33846 ft 471 kts 296°
2026-05-01 10:52 54.92864 60.84340 33833 ft 472 kts 296°
2026-05-01 10:52 54.96843 60.75265 33850 ft 472 kts 296°
2026-05-01 10:53 55.00824 60.66164 33857 ft 472 kts 296°
2026-05-01 10:53 55.04798 60.57044 33863 ft 472 kts 296°
2026-05-01 10:54 55.08767 60.47900 33871 ft 472 kts 295°
2026-05-01 10:54 55.12720 60.38752 33870 ft 472 kts 295°
2026-05-01 10:55 55.16672 60.29571 33873 ft 472 kts 295°
2026-05-01 10:55 55.20617 60.20381 33876 ft 472 kts 295°
2026-05-01 10:56 55.24556 60.11167 33881 ft 472 kts 295°
2026-05-01 10:56 55.28456 60.02012 33890 ft 472 kts 294°
2026-05-01 10:57 55.32409 59.92694 33895 ft 472 kts 294°
2026-05-01 10:57 55.36298 59.83494 33896 ft 472 kts 294°
2026-05-01 10:58 55.40228 59.74155 33899 ft 472 kts 294°
2026-05-01 10:58 55.44071 59.64892 33901 ft 471 kts 293°
2026-05-01 10:59 55.47915 59.55574 33898 ft 471 kts 293°
2026-05-01 10:59 55.51763 59.46223 33915 ft 471 kts 293°
2026-05-01 11:00 55.54959 59.38433 33899 ft 470 kts 293°
2026-05-01 11:00 55.58789 59.29076 33921 ft 470 kts 293°
2026-05-01 11:01 55.62613 59.19700 33907 ft 469 kts 293°
2026-05-01 11:01 55.66405 59.10303 33899 ft 469 kts 292°
2026-05-01 11:02 55.70198 59.00857 33918 ft 470 kts 292°
2026-05-01 11:02 55.74000 58.91409 33917 ft 471 kts 293°
2026-05-01 11:03 55.77807 58.81939 33914 ft 471 kts 293°
2026-05-01 11:03 55.81611 58.72432 33916 ft 472 kts 293°
2026-05-01 11:04 55.85409 58.62903 33687 ft 472 kts 293°
2026-05-01 11:04 55.87303 58.58132 33119 ft 473 kts 294°
2026-05-01 11:04 55.89198 58.53347 32735 ft 471 kts 294°
2026-05-01 11:05 55.92997 58.43735 32901 ft 476 kts 294°
2026-05-01 11:05 55.96796 58.34107 32907 ft 474 kts 294°
2026-05-01 11:06 56.00596 58.24445 32897 ft 475 kts 294°
2026-05-01 11:06 56.04395 58.14730 32907 ft 480 kts 294°
2026-05-01 11:07 56.10157 57.99919 32912 ft 486 kts 294°
2026-05-01 11:07 56.14026 57.89932 32909 ft 488 kts 294°
2026-05-01 11:08 56.17887 57.79924 32919 ft 489 kts 294°
2026-05-01 11:09 56.23646 57.64908 32916 ft 489 kts 294°
2026-05-01 11:09 56.27495 57.54813 32914 ft 489 kts 294°
2026-05-01 11:10 56.33250 57.39641 32917 ft 489 kts 294°
2026-05-01 11:10 56.37076 57.29499 32922 ft 488 kts 294°
2026-05-01 11:11 56.40888 57.19355 32925 ft 488 kts 294°
2026-05-01 11:11 56.44689 57.09192 32921 ft 488 kts 294°
2026-05-01 11:12 56.48479 56.99022 32917 ft 488 kts 294°
2026-05-01 11:12 56.52259 56.88832 32926 ft 487 kts 294°
2026-05-01 11:13 56.56029 56.78630 32930 ft 487 kts 294°
2026-05-01 11:13 56.59794 56.68393 32932 ft 487 kts 294°
2026-05-01 11:14 56.63542 56.58160 32936 ft 487 kts 294°
2026-05-01 11:14 56.67279 56.47917 32933 ft 486 kts 294°
2026-05-01 11:15 56.70984 56.37715 32935 ft 486 kts 294°
2026-05-01 11:15 56.74723 56.27383 32943 ft 486 kts 294°
2026-05-01 11:16 56.78410 56.17159 32933 ft 485 kts 294°
2026-05-01 11:16 56.82107 56.06859 32946 ft 485 kts 294°
2026-05-01 11:17 56.85788 55.96560 32951 ft 485 kts 294°
2026-05-01 11:17 56.89460 55.86201 32960 ft 484 kts 293°
2026-05-01 11:18 56.93025 55.75793 32956 ft 483 kts 292°
2026-05-01 11:18 56.94803 55.70565 32961 ft 483 kts 292°
2026-05-01 11:19 57.03924 55.43679 32976 ft 482 kts 292°
2026-05-01 11:20 57.07422 55.33290 32984 ft 482 kts 292°
2026-05-01 11:20 57.10940 55.22792 32986 ft 482 kts 292°
2026-05-01 11:21 57.14453 55.12270 32989 ft 482 kts 292°
2026-05-01 11:21 57.17959 55.01719 32993 ft 482 kts 292°
2026-05-01 11:22 57.21447 54.91179 32999 ft 482 kts 292°
2026-05-01 11:22 57.24930 54.80607 33013 ft 482 kts 292°
2026-05-01 11:23 57.28404 54.70020 33065 ft 481 kts 292°
2026-05-01 11:23 57.31843 54.59487 33102 ft 481 kts 292°
2026-05-01 11:24 57.35289 54.48887 33163 ft 481 kts 292°
2026-05-01 11:25 57.40450 54.32924 33264 ft 480 kts 292°
2026-05-01 11:25 57.45569 54.16985 33343 ft 480 kts 292°
2026-05-01 11:26 57.50679 54.00962 33453 ft 480 kts 292°
2026-05-01 11:27 57.54076 53.90248 33529 ft 480 kts 292°
2026-05-01 11:27 57.57439 53.79595 33605 ft 480 kts 293°
2026-05-01 11:28 57.60819 53.68846 33658 ft 480 kts 293°
2026-05-01 11:28 57.63644 53.59819 33701 ft 481 kts 293°
2026-05-01 11:29 57.68665 53.43693 33806 ft 481 kts 293°
2026-05-01 11:30 57.73692 53.27433 33894 ft 481 kts 293°
2026-05-01 11:30 57.77039 53.16547 33968 ft 482 kts 293°
2026-05-01 11:31 57.80357 53.05704 34034 ft 482 kts 293°
2026-05-01 11:31 57.83703 52.94712 34061 ft 483 kts 294°
2026-05-01 11:32 57.87011 52.83796 34061 ft 484 kts 294°
2026-05-01 11:32 57.90330 52.72795 34061 ft 484 kts 294°
2026-05-01 11:33 57.93644 52.61763 34068 ft 484 kts 294°
2026-05-01 11:33 57.96955 52.50694 34067 ft 485 kts 294°
2026-05-01 11:34 58.00253 52.39615 34075 ft 485 kts 294°
2026-05-01 11:34 58.03550 52.28489 34076 ft 485 kts 294°
2026-05-01 11:35 58.06839 52.17353 34074 ft 486 kts 294°
2026-05-01 11:35 58.10168 52.06240 34080 ft 486 kts 296°
2026-05-01 11:36 58.13625 51.95196 34084 ft 487 kts 296°
2026-05-01 11:36 58.17073 51.84172 34083 ft 487 kts 296°
2026-05-01 11:37 58.20505 51.73092 34088 ft 487 kts 296°
2026-05-01 11:37 58.23902 51.62045 34087 ft 488 kts 296°
2026-05-01 11:38 58.27312 51.50894 34089 ft 488 kts 296°
2026-05-01 11:38 58.30716 51.39707 34092 ft 488 kts 296°
2026-05-01 11:39 58.34110 51.28499 34094 ft 488 kts 296°
2026-05-01 11:39 58.37474 51.17338 34097 ft 489 kts 296°
2026-05-01 11:40 58.40850 51.06091 34098 ft 489 kts 296°
2026-05-01 11:40 58.44218 50.94814 34097 ft 490 kts 296°
2026-05-01 11:41 58.47585 50.83488 34087 ft 490 kts 297°
2026-05-01 11:41 58.50941 50.72142 34093 ft 490 kts 297°
2026-05-01 11:42 58.54294 50.60754 34115 ft 490 kts 297°
2026-05-01 11:42 58.57675 50.49406 34103 ft 491 kts 300°
2026-05-01 11:43 58.61616 50.38758 34102 ft 493 kts 304°
2026-05-01 11:43 58.65678 50.28165 34107 ft 493 kts 304°
2026-05-01 11:44 58.71760 50.12208 34112 ft 493 kts 305°
2026-05-01 11:44 58.75792 50.01510 34108 ft 493 kts 305°
2026-05-01 11:45 58.79809 49.90813 34110 ft 492 kts 305°
2026-05-01 11:45 58.83814 49.80116 34109 ft 492 kts 305°
2026-05-01 11:46 58.87814 49.69385 34109 ft 491 kts 305°
2026-05-01 11:46 58.91772 49.58719 34112 ft 491 kts 305°
2026-05-01 11:47 58.95752 49.47939 34113 ft 491 kts 305°
2026-05-01 11:47 58.99712 49.37162 34110 ft 490 kts 305°
2026-05-01 11:48 59.03653 49.26385 34113 ft 490 kts 305°
2026-05-01 11:48 59.07588 49.15566 34115 ft 490 kts 305°
2026-05-01 11:49 59.11516 49.04719 34117 ft 490 kts 305°
2026-05-01 11:49 59.15428 48.93863 34120 ft 489 kts 305°
2026-05-01 11:50 59.19149 48.82834 34118 ft 489 kts 298°
2026-05-01 11:50 59.21637 48.70497 34120 ft 490 kts 284°
2026-05-01 11:51 59.22982 48.57430 34121 ft 491 kts 281°
2026-05-01 11:51 59.24284 48.44390 34118 ft 491 kts 282°
2026-05-01 11:52 59.25638 48.31284 34119 ft 492 kts 282°
2026-05-01 11:52 59.27001 48.18130 34120 ft 493 kts 282°
2026-05-01 11:53 59.28352 48.04990 34119 ft 493 kts 282°
2026-05-01 11:53 59.29690 47.91815 34122 ft 493 kts 282°
2026-05-01 11:54 59.31003 47.78712 34119 ft 494 kts 282°
2026-05-01 11:54 59.32313 47.65489 34123 ft 494 kts 282°
2026-05-01 11:55 59.33610 47.52257 34117 ft 494 kts 282°
2026-05-01 11:55 59.34889 47.39047 34127 ft 493 kts 282°
2026-05-01 11:56 59.36149 47.25899 34117 ft 493 kts 282°
2026-05-01 11:56 59.37406 47.12629 34118 ft 493 kts 282°
2026-05-01 11:57 59.38640 46.99454 34126 ft 494 kts 282°
2026-05-01 11:57 59.39868 46.86191 34124 ft 494 kts 282°
2026-05-01 11:58 59.41081 46.72915 34121 ft 494 kts 282°
2026-05-01 11:59 59.42878 46.52969 34126 ft 494 kts 282°
2026-05-01 11:59 59.44061 46.39644 34129 ft 495 kts 282°
2026-05-01 12:00 59.45803 46.19706 34129 ft 495 kts 282°
2026-05-01 12:01 59.47521 45.99670 34133 ft 495 kts 282°
2026-05-01 12:01 59.48650 45.86292 34133 ft 495 kts 282°
2026-05-01 12:02 59.49764 45.72929 34130 ft 495 kts 282°
2026-05-01 12:02 59.50859 45.59622 34130 ft 495 kts 282°
2026-05-01 12:03 59.51885 45.46206 34131 ft 496 kts 279°
2026-05-01 12:03 59.52735 45.32720 34139 ft 495 kts 281°
2026-05-01 12:04 59.53597 45.19265 34139 ft 495 kts 280°
2026-05-01 12:04 59.54431 45.05775 34136 ft 495 kts 280°
2026-05-01 12:05 59.55239 44.92311 34138 ft 495 kts 280°
2026-05-01 12:05 59.56421 44.72170 34135 ft 494 kts 280°
2026-05-01 12:06 59.57352 44.58733 34135 ft 494 kts 282°
2026-05-01 12:06 59.58335 44.45321 34136 ft 494 kts 282°
2026-05-01 12:07 59.59291 44.31897 34135 ft 494 kts 282°
2026-05-01 12:07 59.60223 44.18439 34136 ft 494 kts 282°
2026-05-01 12:08 59.61131 44.05051 34133 ft 494 kts 281°
2026-05-01 12:08 59.62030 43.91590 34132 ft 495 kts 281°
2026-05-01 12:09 59.62920 43.78070 34139 ft 495 kts 281°
2026-05-01 12:09 59.63789 43.64643 34141 ft 495 kts 281°
2026-05-01 12:10 59.65074 43.44382 34136 ft 495 kts 281°
2026-05-01 12:11 59.66328 43.24085 34129 ft 496 kts 281°
2026-05-01 12:11 59.67148 43.10529 34130 ft 496 kts 281°
2026-05-01 12:12 59.67949 42.97053 34133 ft 496 kts 281°
2026-05-01 12:12 59.68739 42.83490 34138 ft 496 kts 281°
2026-05-01 12:13 59.69517 42.69915 34133 ft 496 kts 281°
2026-05-01 12:13 59.70276 42.56317 34133 ft 496 kts 281°
2026-05-01 12:14 59.70988 42.42775 34132 ft 496 kts 281°
2026-05-01 12:14 59.71687 42.29112 34132 ft 496 kts 281°
2026-05-01 12:15 59.72370 42.15555 34131 ft 496 kts 281°
2026-05-01 12:15 59.73043 42.01931 34135 ft 496 kts 281°
2026-05-01 12:16 59.73699 41.88380 34135 ft 496 kts 281°
2026-05-01 12:16 59.74345 41.74716 34134 ft 496 kts 281°
2026-05-01 12:17 59.74976 41.61079 34133 ft 496 kts 281°
2026-05-01 12:17 59.75984 41.47726 34134 ft 492 kts 286°
2026-05-01 12:18 59.77129 41.34351 34133 ft 492 kts 286°
2026-05-01 12:18 59.78066 41.23185 34135 ft 492 kts 286°
2026-05-01 12:19 59.79336 41.07578 34134 ft 492 kts 286°
2026-05-01 12:19 59.80237 40.96319 34140 ft 492 kts 286°
2026-05-01 12:20 59.81296 40.82895 34129 ft 492 kts 286°
2026-05-01 12:20 59.82338 40.69527 34136 ft 492 kts 286°
2026-05-01 12:21 59.83373 40.56052 34132 ft 492 kts 286°
2026-05-01 12:21 59.84388 40.42645 34132 ft 492 kts 286°
2026-05-01 12:22 59.85399 40.29131 34130 ft 492 kts 286°
2026-05-01 12:22 59.86388 40.15741 34134 ft 492 kts 286°
2026-05-01 12:23 59.87371 40.02211 34129 ft 492 kts 286°
2026-05-01 12:23 59.88331 39.88810 34132 ft 492 kts 286°
2026-05-01 12:24 59.89285 39.75299 34125 ft 491 kts 286°
2026-05-01 12:24 59.90219 39.61862 34130 ft 491 kts 285°
2026-05-01 12:25 59.91604 39.41587 34126 ft 491 kts 285°
2026-05-01 12:26 59.92511 39.28097 34125 ft 491 kts 285°
2026-05-01 12:26 59.93834 39.07927 34129 ft 491 kts 285°
2026-05-01 12:27 59.95133 38.87681 34131 ft 490 kts 285°
2026-05-01 12:28 59.96401 38.67425 34132 ft 490 kts 284°
2026-05-01 12:29 59.97632 38.47241 34138 ft 489 kts 284°
2026-05-01 12:29 59.98835 38.27014 34140 ft 488 kts 284°
2026-05-01 12:30 60.00001 38.06878 34138 ft 487 kts 283°
2026-05-01 12:31 60.00764 37.93401 34142 ft 487 kts 283°
2026-05-01 12:31 60.01512 37.79960 34146 ft 486 kts 283°
2026-05-01 12:32 60.02247 37.66489 34138 ft 486 kts 283°
2026-05-01 12:32 60.03319 37.46351 34138 ft 485 kts 283°
2026-05-01 12:33 60.04012 37.32998 34138 ft 484 kts 282°
2026-05-01 12:33 60.04695 37.19597 34134 ft 484 kts 282°
2026-05-01 12:34 60.05364 37.06188 34133 ft 483 kts 282°
2026-05-01 12:34 60.06013 36.92881 34136 ft 483 kts 282°
2026-05-01 12:35 60.06651 36.79492 34132 ft 482 kts 282°
2026-05-01 12:35 60.07276 36.66064 34140 ft 482 kts 282°
2026-05-01 12:36 60.07882 36.52769 34146 ft 481 kts 282°
2026-05-01 12:36 60.08479 36.39359 34146 ft 481 kts 282°
2026-05-01 12:37 60.09057 36.26066 34142 ft 481 kts 282°
2026-05-01 12:37 60.09625 36.12699 34140 ft 480 kts 282°
2026-05-01 12:38 60.10180 35.99340 34134 ft 480 kts 281°
2026-05-01 12:38 60.10716 35.86075 34136 ft 480 kts 281°
2026-05-01 12:39 60.11241 35.72719 34140 ft 480 kts 281°
2026-05-01 12:39 60.11753 35.59326 34142 ft 480 kts 281°
2026-05-01 12:40 60.12245 35.46024 34140 ft 480 kts 281°
2026-05-01 12:40 60.12726 35.32659 34134 ft 480 kts 281°
2026-05-01 12:41 60.13194 35.19292 34137 ft 480 kts 281°
2026-05-01 12:41 60.13649 35.05938 34130 ft 480 kts 281°
2026-05-01 12:42 60.14087 34.92627 33530 ft 471 kts 281°
2026-05-01 12:42 60.14290 34.86149 32149 ft 472 kts 281°
2026-05-01 12:42 60.14499 34.79530 30664 ft 473 kts 281°
2026-05-01 12:43 60.14697 34.72969 29743 ft 461 kts 281°
2026-05-01 12:43 60.14885 34.66667 28729 ft 452 kts 281°
2026-05-01 12:43 60.15073 34.60431 27632 ft 445 kts 281°
2026-05-01 12:43 60.15261 34.54250 26580 ft 438 kts 281°
2026-05-01 12:44 60.15444 34.48220 25569 ft 432 kts 281°
2026-05-01 12:44 60.15623 34.42251 24584 ft 426 kts 281°
2026-05-01 12:44 60.15970 34.30532 22505 ft 413 kts 280°
2026-05-01 12:45 60.16292 34.19244 20431 ft 399 kts 279°
2026-05-01 12:45 60.16447 34.13708 19403 ft 393 kts 279°
2026-05-01 12:45 60.16597 34.08259 18383 ft 387 kts 278°
2026-05-01 12:46 60.16743 34.02887 17258 ft 381 kts 278°
2026-05-01 12:46 60.16883 33.97651 16645 ft 375 kts 278°
2026-05-01 12:46 60.17023 33.92360 16337 ft 379 kts 278°
2026-05-01 12:46 60.17156 33.87111 16183 ft 378 kts 278°
2026-05-01 12:47 60.17287 33.81809 16135 ft 377 kts 278°
2026-05-01 12:47 60.17412 33.76588 16139 ft 378 kts 278°
2026-05-01 12:47 60.17534 33.71358 16145 ft 378 kts 277°
2026-05-01 12:47 60.17655 33.66040 16144 ft 378 kts 277°
2026-05-01 12:48 60.17772 33.60812 16142 ft 378 kts 277°
2026-05-01 12:48 60.17888 33.55515 16143 ft 377 kts 277°
2026-05-01 12:48 60.18003 33.50227 16145 ft 378 kts 277°
2026-05-01 12:48 60.18115 33.44971 16145 ft 378 kts 277°
2026-05-01 12:49 60.18225 33.39723 16148 ft 378 kts 277°
2026-05-01 12:49 60.18334 33.34422 16148 ft 377 kts 277°
2026-05-01 12:49 60.18439 33.29197 16150 ft 377 kts 277°
2026-05-01 12:49 60.18543 33.23933 16149 ft 377 kts 277°
2026-05-01 12:50 60.18554 33.18624 16156 ft 380 kts 272°
2026-05-01 12:50 60.18243 33.13294 16153 ft 386 kts 264°
2026-05-01 12:50 60.17596 33.08090 16150 ft 390 kts 258°
2026-05-01 12:50 60.16792 33.02867 16153 ft 390 kts 257°
2026-05-01 12:51 60.15985 32.97638 16155 ft 390 kts 258°
2026-05-01 12:51 60.15208 32.92478 16159 ft 390 kts 258°
2026-05-01 12:51 60.13692 32.82066 16156 ft 389 kts 259°
2026-05-01 12:52 60.12945 32.76847 16098 ft 386 kts 259°
2026-05-01 12:52 60.11478 32.66598 14715 ft 378 kts 259°
2026-05-01 12:52 60.10765 32.61613 13786 ft 371 kts 258°
2026-05-01 12:53 60.09364 32.51840 11617 ft 359 kts 258°
2026-05-01 12:53 60.08680 32.47085 10838 ft 351 kts 257°
2026-05-01 12:53 60.07998 32.42373 10446 ft 348 kts 257°
2026-05-01 12:54 60.07329 32.37803 9951 ft 332 kts 257°
2026-05-01 12:54 60.06065 32.29165 8157 ft 319 kts 257°
2026-05-01 12:54 60.05415 32.24913 7207 ft 314 kts 254°
2026-05-01 12:55 60.04040 32.16731 6302 ft 312 kts 253°
2026-05-01 12:55 60.03330 32.12639 5995 ft 310 kts 252°
2026-05-01 12:55 60.02621 32.08580 5691 ft 307 kts 252°
2026-05-01 12:56 60.01922 32.04555 5415 ft 307 kts 253°
2026-05-01 12:56 60.01223 32.00519 5202 ft 303 kts 253°
2026-05-01 12:56 60.00533 31.96526 5137 ft 304 kts 253°
2026-05-01 12:56 59.99842 31.92530 5163 ft 304 kts 252°
2026-05-01 12:57 59.99153 31.88529 5179 ft 305 kts 252°
2026-05-01 12:57 59.97770 31.80598 5163 ft 304 kts 252°
2026-05-01 12:57 59.97072 31.76608 5153 ft 305 kts 252°
2026-05-01 12:58 59.96367 31.72596 5155 ft 304 kts 252°
2026-05-01 12:58 59.95675 31.68654 5159 ft 304 kts 252°
2026-05-01 12:58 59.94973 31.64674 5154 ft 304 kts 252°
2026-05-01 12:59 59.93567 31.56736 5159 ft 303 kts 252°
2026-05-01 12:59 59.92863 31.52740 5152 ft 303 kts 252°
2026-05-01 12:59 59.91472 31.44863 5154 ft 303 kts 251°
2026-05-01 13:00 59.90068 31.36955 5148 ft 303 kts 251°
2026-05-01 13:00 59.89362 31.33001 5148 ft 302 kts 251°
2026-05-01 13:01 59.87954 31.25124 5148 ft 302 kts 251°
2026-05-01 13:01 59.87251 31.21163 5159 ft 303 kts 251°
2026-05-01 13:01 59.85851 31.13321 5153 ft 301 kts 252°
2026-05-01 13:02 59.85216 31.09353 5152 ft 301 kts 253°
2026-05-01 13:07 59.76702 30.43943 1735 ft 199 kts 286°
2026-05-01 13:07 59.77080 30.41425 1470 ft 183 kts 286°
2026-05-01 13:07 59.77432 30.39072 1220 ft 171 kts 285°
2026-05-01 13:08 59.77758 30.36883 1012 ft 168 kts 285°
2026-05-01 13:08 59.78096 30.34612 783 ft 169 kts 285°
2026-05-01 13:08 59.78416 30.32450 554 ft 154 kts 285°
2026-05-01 13:08 59.78710 30.30483 361 ft 143 kts 284°
2026-05-01 13:09 59.78992 30.28566 170 ft 148 kts 285°
2026-05-01 13:09 59.79267 30.26704 91 ft 107 kts 286°
2026-05-01 13:09 59.79379 30.25914 90 ft 49 kts 284°
2026-05-01 13:09 59.79534 30.25089 93 ft 38 kts 292°
2026-05-01 13:10 59.79568 30.24679 93 ft 33 kts 278°
2026-05-01 13:10 59.79635 30.24198 91 ft 39 kts 285°
2026-05-01 13:10 59.79731 30.23652 90 ft 43 kts 289°
2026-05-01 13:10 59.79787 30.23381 90 ft 5 kts 295°
2026-05-01 13:11 59.79794 30.23351 91 ft 3 kts 295°
2026-05-01 13:11 59.79871 30.23115 92 ft 5 kts 297°
2026-05-01 13:11 59.79897 30.23068 93 ft 14 kts 321°
2026-05-01 13:11 59.79947 30.23017 94 ft 0 kts 353°
2026-05-01 13:13 59.79990 30.23071 90 ft 17 kts 60°
2026-05-01 13:13 59.79960 30.23256 92 ft 18 kts 115°
2026-05-01 13:13 59.79907 30.23582 92 ft 19 kts 98°
2026-05-01 13:14 59.79872 30.23853 91 ft 22 kts 112°
2026-05-01 13:14 59.79841 30.24152 93 ft 23 kts 91°
2026-05-01 13:14 59.79801 30.24384 93 ft 0 kts 88°
2026-05-01 13:14 59.79785 30.24461 92 ft 20 kts 111°
2026-05-01 13:15 59.79716 30.24885 93 ft 34 kts 113°
2026-05-01 13:15 59.79664 30.25282 91 ft 29 kts 101°
2026-05-01 13:15 59.79624 30.25509 92 ft 6 kts 106°
2026-05-01 13:15 59.79608 30.25632 91 ft 4 kts 110°
2026-05-01 13:16 59.79589 30.25762 91 ft 22 kts 106°
2026-05-01 13:16 59.79531 30.26149 92 ft 31 kts 107°
2026-05-01 13:16 59.79523 30.26210 93 ft 2 kts 101°
2026-05-01 13:17 59.79619 30.26354 91 ft 0 kts 28°
2026-05-01 13:17 59.79636 30.26367 90 ft 5 kts 18°
2026-05-01 13:18 59.79741 30.26473 92 ft 5 kts 68°
2026-05-01 13:18 59.79730 30.26563 90 ft 9 kts 108°
2026-05-01 13:18 59.79722 30.26630 91 ft 0 kts 111°